[[{"header":{"parameterUnit":"m.s-1","parameterCategory":1,"la1":30.2991,"la2":30.254,"lo1":-89.0895,"lo2":-89.0444,"dy":0.0017,"dx":0.0017,"nx":28,"ny":28,"refTime":"2025-02-03T09:00:00:Z","depth":0,"parameterNumber":2,"parameterNumberName":"U-component_of_WINDS"},"data":[0,0,0,0,0,0,0,0,0,0,0,0,0,0,0,0,0,0,0,0,0,0,0,0,0,0,0,0,0,0,0,0,0,0,0,0,0,0,0,0,0,0,0,0,0,0,0,0,0,0,0,0,0,0,0,0,0,0,0.4291,0.4292,0,0.4331,0.4331,0.4332,0.4349,0.4349,0.4349,0.4349,0.4387,0.4388,0.4389,0,0,0,0,0,0,0,0,0,0,0,0,0,0.4228,0.4229,0.4291,0.4292,0.4292,0.4331,0.4331,0.4332,0.4349,0.4349,0.4349,0.4349,0.4387,0.4388,0.4389,0,0,0,0,0,0,0,0,0,0,0,0,0,0.426,0.423,0.4291,0.4306,0.4307,0.4331,0.4331,0.4332,0.4349,0.4349,0.4349,0.4349,0.4386,0.4388,0.439,0.4401,0,0,0.4394,0.4395,0,0,0,0,0,0,0,0,0.4259,0.4263,0.4303,0.4305,0.4307,0.4335,0.4323,0.4355,0.4349,0.4333,0.4349,0.4349,0.437,0.4373,0.438,0.4403,0.4405,0.4395,0.4396,0.4396,0.4397,0,0,0,0,0,0,0,0.4256,0.4261,0.4307,0.4303,0.4306,0.4309,0.4314,0.4329,0.4351,0.4334,0.4336,0.434,0.4371,0.4379,0.4381,0.4405,0.4395,0.4396,0.4397,0.4398,0.4439,0.4439,0,0,0,0,0,0,0.4252,0.4259,0.4306,0.4308,0.4282,0.431,0.4315,0.4326,0.4351,0.4355,0.434,0.4341,0.4376,0.4379,0.4383,0.4398,0.4396,0.4398,0.4399,0.4439,0.4439,0.4439,0,0,0,0,0,0,0.4251,0.4256,0.4304,0.4284,0.429,0.4312,0.4323,0.4327,0.4335,0.4356,0.4359,0.4345,0.4376,0.438,0.4397,0.4399,0.4399,0.44,0.4439,0.4439,0.4439,0.4428,0,0,0,0,0,0,0.4249,0.4255,0.4261,0.4284,0.4291,0.4318,0.4323,0.4328,0.4338,0.4339,0.4361,0.4364,0.4376,0.4394,0.4398,0.4402,0.4401,0.4439,0.4439,0.4439,0.4429,0.4428,0.4428,0,0,0,0,0,0.4246,0.4256,0.4261,0.4266,0.4299,0.4318,0.4322,0.4337,0.4338,0.4343,0.4356,0.4364,0.4398,0.4396,0.44,0.4404,0.4438,0.4439,0.4439,0.4429,0.4428,0.4428,0,0,0,0,0,0,0.4231,0.4259,0.4265,0.4282,0.4298,0.4321,0.4328,0.4336,0.4351,0.4351,0.4367,0.4372,0.4387,0.4397,0.4393,0.4417,0.4419,0.442,0.441,0.4409,0.4409,0.4406,0.4403,0,0,0,0,0,0.423,0.4245,0.4268,0.428,0.4288,0.4307,0.4316,0.4325,0.4342,0.4348,0.4363,0.4378,0.4392,0.4401,0.4416,0.443,0.4435,0.4435,0.4435,0.4434,0.4435,0.4443,0.4444,0.444,0.444,0.444,0,0,0.4228,0.4244,0.4252,0.4278,0.4291,0.4305,0.4312,0.4326,0.4336,0.435,0.4367,0.4378,0.4395,0.4411,0.4418,0.442,0.4437,0.4435,0.4434,0.4435,0.4444,0.4444,0.4444,0.444,0.444,0.444,0,0,0.423,0.4244,0.4257,0.427,0.429,0.4302,0.4305,0.4327,0.4335,0.4352,0.4363,0.4374,0.4399,0.4411,0.442,0.4427,0.4434,0.4431,0.4429,0.4437,0.4437,0.4438,0.444,0.4441,0.4432,0.4432,0.4432,0,0.4224,0.4246,0.4262,0.4276,0.4287,0.43,0.4312,0.4324,0.4347,0.4354,0.4356,0.4387,0.4399,0.4418,0.4419,0.4426,0.443,0.4429,0.4436,0.4437,0.4437,0.444,0.444,0.4432,0.4432,0.4432,0.4432,0,0.4238,0.4253,0.426,0.4284,0.4295,0.4308,0.4325,0.4334,0.4343,0.4354,0.4371,0.4387,0.4405,0.4409,0.4418,0.4429,0.4429,0.4433,0.4436,0.4437,0.4439,0.444,0.4431,0.4431,0.4431,0.4431,0,0,0.4233,0.4264,0.4267,0.4277,0.43,0.4312,0.4325,0.4343,0.435,0.4366,0.4377,0.4397,0.4401,0.4412,0.4421,0.4428,0.4432,0.4431,0.4432,0.4431,0.4445,0.4442,0.4443,0.4437,0.4437,0.4437,0.4443,0,0.4238,0.4264,0.4278,0.4297,0.4311,0.4323,0.4335,0.4349,0.4361,0.4373,0.4385,0.4399,0.4404,0.441,0.4417,0.443,0.4435,0.443,0.4447,0.4447,0.4442,0.4444,0.4441,0.4446,0.4444,0.4445,0.4445,0,0.4249,0.4264,0.4285,0.4306,0.4313,0.4323,0.434,0.4352,0.4369,0.4377,0.4388,0.4398,0.4411,0.4413,0.4431,0.4427,0.4435,0.4442,0.4443,0.4445,0.4446,0.4446,0.4448,0.4449,0.4446,0.4446,0.4446,0,0.4242,0.4269,0.4285,0.4293,0.4318,0.4325,0.4336,0.4353,0.4362,0.4377,0.4384,0.44,0.4408,0.442,0.4433,0.4433,0.445,0.4453,0.4457,0.4456,0.446,0.446,0.4463,0.4465,0.4465,0.4465,0.4465,0,0.4247,0.4259,0.4282,0.4292,0.4306,0.4321,0.4334,0.4346,0.436,0.4372,0.4383,0.4394,0.4411,0.4423,0.4433,0.4447,0.4451,0.4457,0.4459,0.4456,0.4455,0.4461,0.4461,0.4465,0.4465,0.4465,0.4465,0,0.4243,0.4259,0.4277,0.4299,0.4305,0.4314,0.4333,0.4343,0.4354,0.4369,0.4373,0.4391,0.4406,0.442,0.444,0.4447,0.446,0.4464,0.4455,0.4457,0.446,0.4459,0.4467,0.4469,0.4469,0.4469,0.4469,0,0.4245,0.4255,0.4279,0.4288,0.4298,0.4312,0.4323,0.4338,0.4348,0.4368,0.4375,0.4391,0.4404,0.4427,0.4442,0.4457,0.4461,0.4463,0.4463,0.4459,0.4461,0.446,0.4461,0.4462,0.4462,0.4462,0.4462,0,0.4248,0.4255,0.427,0.4287,0.4299,0.4314,0.4328,0.4335,0.4353,0.4363,0.4379,0.439,0.441,0.4426,0.4442,0.4452,0.446,0.4462,0.4463,0.446,0.4455,0.4458,0.4454,0.4461,0.4462,0.4462,0.4462,0.4462,0.4247,0.4256,0.4274,0.429,0.4303,0.4316,0.4326,0.4339,0.4353,0.4371,0.4379,0.4395,0.4411,0.4435,0.4444,0.4456,0.4458,0.4461,0.4461,0.4462,0.4461,0.4453,0.4459,0.4459,0.446,0.446,0.446,0,0.425,0.4262,0.4277,0.4297,0.4309,0.4316,0.4333,0.4342,0.4356,0.4371,0.4384,0.4402,0.4417,0.4433,0.4448,0.4455,0.4459,0.4458,0.4458,0.446,0.4458,0.4456,0.4455,0.4455,0.4455,0.4455,0.4455,0.4455,0.4253,0.4269,0.4278,0.43,0.4312,0.4328,0.4337,0.4349,0.4361,0.4381,0.4394,0.4404,0.4419,0.4435,0.4449,0.4453,0.4458,0.4457,0.4462,0.446,0.446,0.4461,0.4458,0.4458,0.4458,0.4463,0.4463,0.4463]},{"header":{"parameterUnit":"m.s-1","parameterCategory":1,"la1":30.2991,"la2":30.254,"lo1":-89.0895,"lo2":-89.0444,"dy":0.0017,"dx":0.0017,"nx":28,"ny":28,"refTime":"2025-02-03T09:00:00:Z","depth":0,"parameterNumber":3,"parameterNumberName":"V-component_of_WINDS"},"data":[0,0,0,0,0,0,0,0,0,0,0,0,0,0,0,0,0,0,0,0,0,0,0,0,0,0,0,0,0,0,0,0,0,0,0,0,0,0,0,0,0,0,0,0,0,0,0,0,0,0,0,0,0,0,0,0,0,0,1.0295,1.0295,0,1.0245,1.0245,1.0244,1.021,1.021,1.0209,1.0209,1.0156,1.0155,1.0154,0,0,0,0,0,0,0,0,0,0,0,0,0,1.036,1.0359,1.0295,1.0295,1.0294,1.0245,1.0245,1.0244,1.021,1.021,1.0209,1.0209,1.0157,1.0155,1.0154,0,0,0,0,0,0,0,0,0,0,0,0,0,1.0323,1.0359,1.0296,1.0271,1.0269,1.0246,1.0245,1.0244,1.021,1.021,1.0209,1.0209,1.0157,1.0155,1.0154,1.015,0,0,1.0148,1.0148,0,0,0,0,0,0,0,0,1.0325,1.0321,1.0275,1.0273,1.027,1.0234,1.0248,1.0212,1.021,1.0232,1.0209,1.0209,1.0182,1.0178,1.017,1.0148,1.0146,1.0148,1.0147,1.0146,1.0146,0,0,0,0,0,0,0,1.0328,1.0323,1.0276,1.0275,1.0271,1.0263,1.0257,1.0241,1.021,1.023,1.0228,1.0222,1.0181,1.0172,1.0168,1.0145,1.0148,1.0147,1.0146,1.0145,1.0118,1.0119,0,0,0,0,0,0,1.0335,1.0325,1.0277,1.0274,1.0297,1.0262,1.0255,1.0246,1.021,1.0204,1.0223,1.0221,1.0175,1.017,1.0166,1.0161,1.0146,1.0145,1.0144,1.0118,1.0118,1.0119,0,0,0,0,0,0,1.0336,1.0331,1.0279,1.0299,1.0292,1.0261,1.025,1.0245,1.0236,1.0204,1.0198,1.0219,1.0174,1.0169,1.0155,1.0158,1.0144,1.0142,1.0118,1.0118,1.0119,1.0149,0,0,0,0,0,0,1.0338,1.0331,1.033,1.0299,1.0291,1.0269,1.025,1.0244,1.0233,1.023,1.0199,1.0194,1.0174,1.0158,1.0153,1.0156,1.0141,1.0117,1.0118,1.0118,1.0148,1.0151,1.0153,0,0,0,0,0,1.0341,1.034,1.033,1.0325,1.0289,1.0269,1.0264,1.0241,1.0233,1.0232,1.0212,1.0195,1.0159,1.0157,1.0151,1.0153,1.0117,1.0118,1.0118,1.0146,1.015,1.0153,0,0,0,0,0,0,1.0371,1.0336,1.0324,1.0314,1.0295,1.0264,1.0261,1.0246,1.0228,1.0226,1.0198,1.0191,1.0181,1.0165,1.0164,1.0148,1.0136,1.0135,1.0159,1.0162,1.0165,1.0169,1.0139,0,0,0,0,0,1.0377,1.0365,1.0334,1.0328,1.0319,1.0292,1.0282,1.0266,1.0245,1.0237,1.0216,1.0196,1.018,1.017,1.0153,1.0145,1.0138,1.0144,1.0147,1.0149,1.0149,1.0145,1.0147,1.0121,1.0121,1.0121,0,0,1.0388,1.0367,1.0361,1.0333,1.0317,1.0305,1.0285,1.0273,1.0264,1.0235,1.0221,1.0205,1.018,1.017,1.0164,1.0157,1.0155,1.015,1.0152,1.0151,1.0146,1.0148,1.015,1.0122,1.0122,1.0122,0,0,1.0403,1.0386,1.0379,1.0364,1.0339,1.0321,1.032,1.029,1.0279,1.0264,1.0243,1.0231,1.0204,1.0188,1.0176,1.0186,1.017,1.0181,1.0196,1.0192,1.0194,1.0195,1.0199,1.0201,1.0182,1.0182,1.0182,0,1.0421,1.0402,1.0378,1.0367,1.0356,1.033,1.0323,1.0309,1.028,1.0272,1.0265,1.0231,1.0213,1.0198,1.0201,1.0192,1.0189,1.0185,1.0195,1.0197,1.0198,1.0202,1.0203,1.0183,1.0183,1.0183,1.0183,0,1.0425,1.0412,1.0409,1.0384,1.0372,1.0363,1.0337,1.0328,1.0313,1.0296,1.0282,1.0259,1.0238,1.0233,1.0218,1.0217,1.0213,1.0201,1.0188,1.0202,1.0205,1.0206,1.0185,1.0185,1.0184,1.0184,0,0,1.0457,1.0419,1.0418,1.0407,1.0378,1.0368,1.0358,1.0338,1.0331,1.0312,1.0303,1.0281,1.027,1.0257,1.024,1.0236,1.0246,1.0224,1.0223,1.0229,1.0244,1.0254,1.0256,1.0235,1.0235,1.0235,1.0246,0,1.0469,1.0451,1.0429,1.0418,1.0406,1.0382,1.0373,1.0355,1.0338,1.0326,1.0307,1.0293,1.0278,1.027,1.0265,1.0246,1.0248,1.0244,1.0227,1.0227,1.0235,1.0257,1.0268,1.0279,1.0247,1.0247,1.0247,0,1.0479,1.0463,1.0451,1.0424,1.0419,1.0411,1.0392,1.038,1.0359,1.0347,1.0333,1.0314,1.0303,1.0291,1.0275,1.0273,1.0264,1.0253,1.0253,1.0251,1.0239,1.0257,1.0282,1.0284,1.0249,1.0249,1.0249,0,1.0506,1.048,1.047,1.0461,1.0429,1.0425,1.0411,1.0389,1.0379,1.0362,1.0355,1.0336,1.0326,1.0312,1.0289,1.0282,1.0275,1.0261,1.0266,1.0266,1.0266,1.0266,1.0291,1.0259,1.0259,1.0259,1.0259,0,1.0521,1.0515,1.0482,1.0476,1.0468,1.0443,1.0436,1.0421,1.0402,1.0392,1.0369,1.036,1.033,1.0318,1.03,1.029,1.0285,1.0276,1.0271,1.0278,1.028,1.0273,1.0272,1.0259,1.0259,1.0259,1.0259,0,1.0549,1.0527,1.0515,1.0486,1.0479,1.0475,1.045,1.0443,1.0425,1.0413,1.0409,1.0381,1.0366,1.0342,1.0318,1.0306,1.03,1.0291,1.0307,1.0305,1.0311,1.0311,1.0333,1.0334,1.0301,1.0301,1.0301,0,1.0561,1.0556,1.0527,1.052,1.0507,1.0495,1.0484,1.0459,1.0449,1.0425,1.0421,1.0404,1.0389,1.0365,1.0343,1.0325,1.0317,1.0326,1.0314,1.0322,1.0318,1.032,1.0319,1.0329,1.033,1.033,1.033,0,1.0584,1.0574,1.056,1.0543,1.0531,1.0516,1.05,1.0495,1.0466,1.0456,1.044,1.0429,1.0406,1.0389,1.0369,1.0354,1.0338,1.0334,1.0334,1.0342,1.0352,1.0348,1.0316,1.0334,1.0333,1.0333,1.0333,1.0333,1.0605,1.06,1.0579,1.0565,1.055,1.0536,1.0529,1.051,1.0497,1.0477,1.0463,1.0448,1.0427,1.0398,1.0385,1.0373,1.0365,1.0365,1.0366,1.0366,1.0369,1.0353,1.0369,1.0369,1.0368,1.0368,1.0368,0,1.0628,1.0614,1.0601,1.058,1.0569,1.0554,1.0536,1.0527,1.0515,1.0497,1.0483,1.0465,1.0449,1.0426,1.0408,1.0403,1.0395,1.0399,1.04,1.0397,1.0376,1.0379,1.0406,1.0406,1.0406,1.0406,1.0406,1.0406,1.0639,1.063,1.0617,1.06,1.0586,1.0572,1.0563,1.0549,1.0535,1.0517,1.0504,1.0489,1.0468,1.0449,1.0434,1.0427,1.0422,1.0429,1.042,1.0402,1.0398,1.0395,1.0397,1.0428,1.0428,1.0442,1.0442,1.0442]}]]